Starlink 33696

operational
NORAD ID: 63463 Int'l Des: 2025-070 Owner: SPXS Country: US Constellation: starlink
LEOCIRCULAR

Starlink 33696について

説明を読み込み中...

リアルタイム位置

3D地球を読み込み中...

次回通過

高度履歴

Altitude vs Time

uPlot chart will show altitude changes over time

軌道要素

1 63463U 25070D 25306.16725478 .00033928 00000-0 12353-2 0 9993
2 63463 43.0007 259.9728 0001207 267.6564 92.4149 15.27619304 33470
Epoch: Nov 2, 2025 • Age: 33 hours

現在のステータス

高度 493.7 km
速度 7.62 km/s
衛星直下点 -39.56°S, 42.5°W
打ち上げ日 Apr 6, 2025
運用期間 0.5 years
タイプ internet

技術仕様

分類 Payload
質量 575.00 kg
乾燥質量 530.00 kg
総質量 575.00 kg
長さ 0.30 m
直径 4.10 m
スパン 29.00 m
形状 Box + pan
製造者 SPXS
バスタイプ Starlink V2MO
フェーズステータス In Orbit
所有者/国 SPXS/US

大規模コンステレーション

Loading constellations...